Find Starlink 32658

NORAD ID: 62999 Int'l Des: 2025-031 Owner: SPXS Country: US Constellation: starlink operational
LEOCIRCULAR

Current View

Loading 3D Globe...

About Starlink 32658

Starlink 32658 (NORAD 62999) is a starlink constellation satellite (v2 mini) launched Feb 11, 2025 by SPXS of US. It operates in LEO, CIRCULAR orbit with a mass of 730.00 kg.

About Starlink 32658

Description loading...

Upcoming Passes

Passes for default location (London). Set your location on the main map for personalized predictions.

Altitude History

Loading altitude history...

Two-Line Element Set

1 62999U 25031U 26170.60605643 .00018005 00000-0 66193-3 0 9994
2 62999 43.0002 287.6249 0001104 270.3154 89.7571 15.27593884 76688
Epoch: Jun 19, 2026 • Age: 12 hours

Current Status

Altitude 489.3 km
Velocity 7.62 km/s
Sub-Earth Point -27.05°S, 60.39°W
Launch Date Feb 11, 2025
Age 1.3 years
Type internet

Technical Details

Classification Payload
Mass 730.00 kg
Dry Mass 700.00 kg
Total Mass 730.00 kg
Length 0.30 m
Diameter 4.10 m
Span 29.00 m
Shape Box + pan
Manufacturer SPXS
Bus Type Starlink V2M
Phase Status In Orbit
Owner/State SPXS/US

Most Searched